Temp
62 62 63 63 63 63 63 63 63 63 63 64 64 64 64 64 64 73 80 89 87 80 82 93 91 92 92 75 76 73 62 63 72 77 80 88 86 93 94 88 88 89 85 86 89
62 62 62 63 62 63 62 62 63 63 63 63 64 64 64 64 71 77 89 83 81 81 90 88 89 80 72 73 73 66 61 70 80 85 85 88 87 87 86 86 84 85 88 90 90
62 61 62 62 62 62 62 62 62 62 62 62 63 64 64 65 73 88 85 81 81 83 96 92 87 87 77 82 76 76 71 82 87 88 92 87 88 91 84 79 83 80 84 88 87
61 61 61 62 62 62 62 62 62 62 62 62 63 64 65 70 75 93 82 81 81 92 94 84 76 75 78 77 84 80 89 89 88 91 91 88 89 89 87 85 89 88 88 88 86
60 61 61 61 61 61 62 62 61 61 62 62 63 64 66 71 83 87 82 81 87 90 91 79 72 76 78 84 86 86 89 93 91 93 90 95 89 90 88 90 91 90 89 86 86
60 60 61 61 61 61 61 61 61 61 62 63 64 64 68 74 97 90 91 87 93 91 90 79 81 82 86 85 82 90 91 91 92 93 94 89 86 88 88 91 89 88 86 86 86
60 60 60 60 60 60 60 60 60 61 62 63 65 73 78 82 99 93 94 90 93 94 91 97 98 91 90 82 95 90 85 88 89 89 87 93 81 78 86 90 87 86 86 88 87
60 60 60 60 59 59 59 59 60 61 63 65 66 71 73 100 98 97 96 93 97 97 98 100 100 93 87 90 89 82 78 70 83 86 89 84 68 82 87 86 84 86 87 88 86
59 60 59 59 59 59 58 58 60 63 65 67 64 67 78 95 96 98 98 94 97 98 98 106 97 87 84 73 72 76 66 71 76 89 83 82 70 80 86 86 84 85 86 86 85
59 58 58 59 58 58 57 59 66 64 69 81 84 73 84 91 97 101 100 101 97 96 95 93 87 80 75 68 60 67 68 73 69 79 83 75 76 82 85 84 85 85 86 85 85
58 58 58 58 58 57 58 70 70 66 72 77 79 84 94 98 103 97 101 98 96 90 79 86 76 70 76 77 81 81 77 75 77 80 77 77 79 73 81 83 78 84 84 84 84
58 58 58 57 57 57 54 69 82 86 76 83 89 91 97 99 92 97 101 88 86 77 84 79 72 84 88 88 85 82 76 73 82 78 77 76 66 73 74 71 76 77 82 86 86
58 57 57 57 56 55 68 79 91 92 74 86 90 87 92 95 90 91 94 90 84 80 81 76 84 91 89 85 82 81 73 74 78 78 73 74 63 66 71 75 80 79 80 90 89
57 57 57 55 59 74 78 85 88 90 65 77 82 88 93 93 86 101 99 92 85 79 83 80 90 90 85 83 83 67 84 86 80 74 64 72 53 60 67 69 74 75 79 88 90
57 57 56 55 53 70 88 93 93 86 52 86 86 99 93 87 87 91 100 91 82 82 80 78 83 84 84 86 86 79 87 82 82 71 67 64 57 60 64 65 70 74 79 81 91
57 56 56 63 57 69 83 87 87 63 57 83 89 85 83 86 89 94 91 93 92 84 85 83 92 88 87 91 89 90 83 80 75 70 59 62 59 58 61 68 73 76 81 79 91
56 55 54 64 72 83 88 84 61 57 84 80 80 84 80 79 83 86 84 81 73 63 66 79 82 89 92 82 84 82 69 57 56 56 57 65 61 63 71 73 77 82 80 82 92
55 54 56 64 75 84 82 68 55 74 78 89 86 84 78 81 81 83 81 75 80 77 71 66 67 82 90 82 76 75 69 58 50 47 55 72 59 59 72 75 78 80 71 78 78
53 68 70 74 70 75 70 59 63 74 85 86 85 78 75 82 82 81 78 76 82 82 69 65 70 89 92 91 85 75 68 76 63 60 57 60 63 68 72 73 74 75 70 73 74
54 68 79 89 82 77 65 59 72 84 87 84 75 79 73 79 76 75 75 84 84 87 86 74 65 82 89 87 85 79 80 64 63 52 51 55 53 55 63 67 68 69 77 73 73
60 69 89 92 87 70 62 67 77 87 88 82 79 78 79 78 80 78 79 86 90 88 85 79 71 74 80 74 73 74 68 69 67 63 54 53 53 61 63 69 67 74 79 82 88
69 67 93 93 67 68 67 74 71 83 88 86 84 82 79 81 77 78 80 84 93 90 79 80 72 61 71 85 87 80 75 71 59 59 61 62 61 72 71 77 77 71 78 75 77
62 73 91 90 63 68 74 79 82 82 84 84 83 85 85 78 70 78 83 94 91 86 76 73 65 58 65 73 79 75 78 71 71 66 61 58 59 72 69 68 69 64 75 70 72
62 67 76 78 79 74 71 74 77 88 86 88 84 83 79 76 78 74 80 90 90 85 77 80 70 65 58 65 73 70 76 78 65 59 61 61 62 63 65 62 63 65 74 73 68
67 70 73 67 72 75 75 75 75 77 87 87 78 79 77 68 72 73 81 84 89 75 77 77 65 66 72 78 80 77 79 79 67 66 60 66 66 58 61 62 62 68 77 74 71
66 65 71 69 75 75 70 72 76 80 80 79 76 83 79 70 72 71 75 72 72 81 76 74 64 65 66 78 80 78 81 79 79 80 72 70 62 66 66 69 71 71 74 72 71
71 73 67 65 72 72 73 76 80 82 83 87 85 79 78 77 80 80 82 81 79 70 66 62 60 61 59 72 74 67 75 76 75 73 72 68 68 68 65 68 68 72 73 73 72
MSLP
1016.10 1015.84 1015.52 1015.15 1014.76 1014.44 1014.27 1014.13 1013.60 1013.13 1013.16 1012.90 1012.55 1012.46 1012.30 1011.94 1011.08 1010.51 1009.30 1007.19 1007.02 1007.77 1008.10 1008.04 1008.24 1007.89 1008.12 1009.80 1011.23 1011.45 1011.12 1009.19 1007.08 1005.27 1004.64 1004.09 1003.99 1004.29 1004.48 1005.55 1006.74 1006.93 1008.15 1009.29 1010.13
1016.16 1015.88 1015.56 1015.21 1014.86 1014.41 1014.12 1013.97 1013.90 1013.46 1012.87 1012.52 1012.42 1012.35 1012.31 1012.00 1011.25 1009.40 1006.66 1006.56 1006.69 1007.43 1007.54 1007.82 1007.68 1008.23 1009.15 1008.80 1009.30 1009.97 1008.90 1006.95 1005.33 1003.92 1003.74 1003.75 1004.05 1004.43 1004.78 1005.32 1006.65 1007.57 1008.75 1009.42 1010.06
1016.18 1015.92 1015.59 1015.17 1014.81 1014.43 1014.03 1013.75 1013.63 1013.54 1013.30 1012.80 1012.38 1012.23 1012.07 1012.00 1010.81 1006.96 1005.27 1006.58 1006.91 1006.95 1007.02 1007.90 1008.00 1007.99 1008.39 1008.36 1008.63 1008.10 1006.36 1005.00 1003.74 1003.44 1002.99 1003.38 1003.76 1004.06 1004.60 1005.94 1006.73 1007.61 1008.57 1009.38 1010.01
1016.28 1015.84 1015.48 1015.15 1014.79 1014.30 1013.92 1013.52 1013.31 1013.20 1013.12 1012.92 1012.55 1012.23 1012.01 1011.62 1009.06 1006.17 1005.98 1006.68 1007.07 1006.93 1006.77 1007.59 1009.22 1008.65 1007.28 1006.52 1006.07 1005.50 1004.53 1003.40 1002.84 1002.39 1002.56 1002.84 1003.26 1003.72 1004.37 1005.54 1006.55 1007.72 1008.55 1009.21 1009.87
1016.50 1016.02 1015.47 1014.99 1014.56 1014.23 1013.76 1013.37 1013.01 1012.85 1012.69 1012.57 1012.36 1012.10 1011.78 1010.63 1007.18 1006.08 1006.26 1006.70 1007.34 1007.24 1007.17 1006.13 1009.13 1008.49 1006.94 1005.32 1004.34 1003.48 1002.96 1002.26 1002.04 1001.91 1002.23 1002.20 1003.25 1003.40 1004.48 1005.63 1006.67 1007.70 1008.57 1009.21 1009.65
1016.34 1016.02 1015.59 1015.00 1014.55 1014.04 1013.66 1013.18 1012.79 1012.50 1012.39 1012.23 1012.03 1011.98 1011.41 1008.58 1005.01 1005.32 1006.10 1006.55 1006.35 1006.96 1006.85 1007.63 1007.27 1006.54 1005.31 1004.45 1003.88 1003.57 1002.07 1001.95 1001.85 1001.99 1002.06 1002.84 1003.60 1003.88 1005.06 1005.69 1006.74 1007.68 1008.51 1008.98 1009.27
1016.35 1015.87 1015.41 1015.05 1014.39 1013.92 1013.47 1013.09 1012.69 1012.26 1012.04 1011.91 1011.79 1011.40 1009.78 1006.21 1004.42 1005.04 1005.46 1005.76 1005.73 1005.61 1005.50 1004.89 1004.55 1004.25 1004.28 1004.01 1003.29 1002.89 1002.67 1002.47 1002.08 1002.21 1002.42 1002.96 1004.33 1004.92 1005.55 1005.73 1006.69 1007.53 1008.37 1008.68 1008.87
1016.32 1015.84 1015.35 1014.99 1014.53 1013.77 1013.19 1012.75 1012.32 1012.02 1011.79 1011.57 1011.60 1010.92 1008.06 1003.80 1004.06 1004.72 1004.94 1005.18 1005.18 1004.86 1004.65 1003.93 1003.43 1003.64 1003.62 1003.60 1003.31 1003.20 1003.51 1003.79 1002.84 1003.32 1003.01 1003.30 1004.60 1005.31 1005.26 1005.80 1006.66 1007.28 1007.96 1008.29 1008.56
1016.27 1015.67 1015.19 1014.59 1014.33 1013.83 1013.01 1012.28 1011.78 1011.43 1011.45 1011.38 1011.33 1010.24 1006.48 1003.62 1003.55 1003.73 1004.07 1004.26 1004.18 1003.87 1003.68 1003.21 1003.26 1003.66 1004.00 1004.40 1004.16 1003.65 1003.80 1003.77 1003.73 1003.12 1004.39 1004.48 1004.85 1005.01 1005.15 1005.57 1006.32 1006.79 1007.49 1007.94 1008.28
1016.23 1015.72 1015.16 1014.58 1013.98 1013.62 1012.58 1011.88 1011.23 1011.18 1010.79 1010.51 1009.84 1009.07 1005.44 1003.22 1002.82 1002.89 1003.18 1003.51 1003.56 1003.26 1003.05 1002.95 1003.11 1003.61 1004.21 1004.69 1004.49 1003.86 1003.85 1003.99 1004.13 1003.49 1004.70 1005.22 1005.50 1004.52 1004.82 1005.65 1006.02 1006.31 1006.83 1007.57 1007.97
1016.18 1015.63 1015.07 1014.43 1013.91 1013.56 1012.53 1011.27 1011.40 1010.95 1009.83 1007.92 1006.53 1005.34 1003.05 1002.52 1002.05 1002.52 1002.72 1003.12 1003.30 1003.27 1003.22 1002.87 1003.22 1003.55 1003.37 1003.40 1003.28 1003.02 1003.32 1003.55 1003.73 1004.40 1004.35 1005.38 1006.68 1008.26 1006.76 1006.90 1007.64 1006.84 1006.34 1006.65 1007.47
1016.15 1015.47 1014.93 1014.33 1013.70 1013.51 1013.52 1011.51 1008.06 1007.21 1006.79 1005.74 1005.00 1004.45 1002.98 1002.45 1002.02 1002.15 1002.41 1003.15 1003.27 1003.36 1003.11 1003.01 1002.67 1002.00 1002.15 1001.61 1001.92 1001.99 1001.89 1002.66 1003.06 1004.14 1004.63 1005.28 1008.09 1008.39 1008.03 1008.56 1008.75 1008.60 1008.05 1006.30 1006.34
1016.02 1015.41 1014.70 1014.03 1013.27 1012.96 1011.47 1009.10 1006.99 1006.38 1006.24 1004.02 1003.30 1003.12 1002.34 1001.94 1001.69 1001.76 1002.19 1002.70 1003.13 1003.24 1002.97 1002.67 1001.75 1001.33 1001.37 1001.00 1001.05 1001.02 1001.16 1001.75 1002.42 1003.88 1004.70 1005.84 1008.81 1008.84 1008.39 1007.86 1007.62 1007.61 1007.56 1006.14 1005.37
1015.88 1015.33 1014.71 1013.57 1012.86 1011.23 1009.38 1006.70 1006.60 1006.58 1006.33 1002.74 1001.40 1001.48 1001.54 1001.50 1001.38 1001.16 1001.36 1002.27 1002.77 1003.03 1002.69 1002.18 1001.13 1000.88 1000.83 1000.56 1000.27 1000.77 1000.52 1000.89 1001.94 1003.53 1004.68 1005.05 1008.30 1008.66 1007.96 1007.50 1006.71 1006.65 1006.99 1005.67 1004.81
1015.64 1015.07 1014.56 1014.80 1013.46 1010.96 1007.10 1006.39 1005.60 1005.96 1005.23 1000.06 1000.12 999.69 1000.60 1001.35 1000.74 1000.95 1001.02 1001.65 1002.21 1002.56 1002.60 1001.75 1001.05 1000.50 1000.06 999.92 999.86 1000.00 1000.20 1000.81 1001.59 1002.82 1004.42 1006.08 1007.56 1007.33 1008.38 1007.89 1006.61 1005.93 1007.07 1005.49 1004.70
1015.32 1014.89 1014.48 1012.86 1013.22 1009.30 1007.33 1006.31 1005.84 1005.95 1002.94 999.58 999.48 999.85 1000.68 1001.05 1001.07 1000.90 1001.17 1001.17 1001.46 1002.27 1002.23 1001.68 1000.68 1000.23 999.74 999.37 999.51 999.83 1000.35 1000.94 1001.84 1003.07 1005.00 1005.97 1007.21 1007.21 1006.99 1005.36 1005.09 1004.31 1004.66 1005.11 1004.45
1014.62 1014.30 1014.68 1013.49 1010.18 1007.78 1007.43 1007.05 1006.58 1004.71 1000.67 999.44 999.40 999.62 1000.20 1000.88 1001.14 1001.04 1001.07 1001.35 1001.83 1002.41 1002.72 1001.94 1000.79 999.90 999.29 999.16 999.24 999.97 1000.90 1001.80 1003.25 1004.03 1005.62 1005.67 1007.33 1006.40 1005.10 1005.10 1004.06 1003.38 1005.24 1004.74 1003.99
1013.67 1012.83 1011.69 1010.75 1009.01 1008.33 1007.72 1007.36 1006.10 1002.59 1000.55 998.91 998.81 999.22 999.98 1000.40 1000.68 1000.83 1000.93 1001.32 1001.34 1001.96 1002.37 1002.10 1000.85 999.57 998.68 998.72 999.06 999.80 1000.77 1002.11 1003.48 1005.41 1006.12 1005.80 1006.57 1007.71 1006.64 1006.15 1005.94 1005.99 1007.81 1004.73 1004.68
1012.74 1010.70 1009.98 1007.89 1008.59 1009.22 1008.59 1007.32 1004.54 1001.99 1000.10 999.30 998.25 998.79 999.47 999.77 1000.20 1000.42 1000.48 1000.77 1000.60 1000.86 1001.62 1001.38 1000.57 998.97 998.26 997.61 998.35 999.30 1000.17 1000.75 1002.52 1004.01 1005.04 1005.64 1006.37 1008.04 1006.47 1006.73 1006.83 1007.39 1009.21 1007.08 1005.59
1013.07 1010.52 1007.36 1006.05 1007.27 1008.11 1008.06 1006.24 1003.50 1001.80 1000.59 999.77 998.99 998.54 998.83 999.08 999.44 999.64 999.86 999.37 999.50 999.44 999.91 1000.42 1000.54 999.24 998.19 997.60 997.60 998.60 999.24 1000.46 1002.06 1003.85 1004.98 1006.46 1007.32 1007.30 1006.41 1005.89 1006.65 1006.05 1006.17 1007.70 1006.40
1012.57 1009.29 1004.29 1005.47 1006.67 1007.62 1006.89 1005.16 1003.25 1001.76 1000.68 1000.05 999.07 999.00 999.09 999.03 998.96 998.49 998.35 997.94 997.86 998.26 998.61 999.67 1000.03 999.46 998.79 998.40 998.16 998.46 999.03 1000.09 1001.43 1002.82 1004.11 1005.74 1006.62 1006.47 1006.36 1006.21 1007.49 1006.28 1005.91 1004.78 1005.06
1011.77 1008.18 1004.77 1005.26 1006.55 1006.36 1005.83 1004.75 1003.33 1001.78 1000.60 999.95 999.13 999.28 999.31 998.87 998.68 998.08 997.54 996.94 996.37 996.91 998.04 998.59 999.40 999.79 999.14 998.23 997.99 998.01 998.67 999.63 1001.43 1002.43 1002.78 1003.48 1004.40 1004.63 1004.73 1005.21 1006.55 1007.10 1006.30 1004.83 1005.40
1012.59 1007.92 1004.50 1004.71 1005.53 1005.50 1004.81 1003.89 1002.92 1001.73 1000.48 999.71 999.29 999.02 999.17 999.12 999.00 998.38 997.71 996.66 996.06 996.46 997.59 998.38 999.42 1000.02 999.80 999.05 997.84 997.78 998.07 998.56 999.50 1000.33 1002.04 1003.54 1004.25 1004.34 1007.46 1008.25 1008.60 1008.01 1005.08 1006.22 1006.13
1013.06 1008.43 1005.48 1005.13 1004.71 1004.68 1004.28 1003.29 1002.15 1001.07 1000.23 999.54 999.38 998.95 999.46 999.41 998.97 998.78 998.07 997.27 996.77 997.23 997.69 998.28 999.60 1000.50 1000.60 999.93 999.14 998.43 998.08 998.57 999.40 1000.95 1002.07 1002.74 1004.43 1005.67 1006.70 1007.70 1006.70 1004.97 1007.19 1007.84 1008.40
1012.15 1008.66 1007.31 1005.90 1005.25 1004.66 1004.07 1003.18 1001.90 1000.74 999.72 999.20 999.19 999.38 999.84 1000.11 999.80 999.37 998.69 998.09 997.77 997.99 998.33 999.05 1000.20 1000.51 1000.26 999.84 999.33 998.66 998.08 998.27 999.09 1000.21 1001.53 1002.54 1003.38 1005.55 1006.22 1005.47 1006.73 1007.75 1007.27 1007.81 1008.43
1011.66 1010.40 1008.63 1007.21 1005.43 1004.12 1003.23 1002.88 1001.78 1000.60 999.98 999.40 999.14 999.28 999.76 1000.17 1000.13 1000.11 999.76 999.61 999.38 999.56 999.67 1000.03 1001.18 1001.37 1001.21 1000.21 999.56 998.76 998.26 998.29 998.76 999.51 1000.91 1002.03 1003.69 1004.55 1005.78 1005.78 1006.67 1007.01 1006.72 1007.29 1008.82
1012.49 1011.22 1010.06 1007.55 1006.10 1004.92 1003.33 1002.32 1001.32 1000.56 999.81 999.57 999.33 999.43 999.60 1000.09 1000.07 1000.21 1000.01 1000.02 999.76 1000.19 1001.15 1002.42 1002.83 1003.58 1002.80 1001.25 1000.19 999.52 998.71 998.92 999.53 1001.11 1002.43 1002.52 1003.11 1004.55 1005.39 1006.46 1007.06 1006.50 1006.27 1007.04 1008.05
Wind_Speed
14 13 13 12 12 12 11 11 12 14 11 12 12 11 11 12 15 4 6 7 8 14 7 6 11 11 5 8 3 4 2 4 5 6 9 9 16 13 10 20 17 6 20 17 15
15 14 14 13 13 13 12 11 10 12 14 14 13 11 9 10 5 9 10 6 12 13 6 7 3 20 5 6 5 2 4 9 4 3 14 15 15 12 8 8 18 20 19 19 17
15 15 15 14 14 13 12 12 11 10 10 12 13 11 10 8 5 6 15 10 11 12 7 10 16 3 9 10 12 8 5 4 6 8 13 12 14 12 11 18 20 25 22 19 16
16 17 16 15 15 14 14 14 13 12 10 9 10 10 9 5 4 5 9 11 10 7 3 14 11 7 4 5 11 6 18 5 9 6 13 13 10 9 12 17 22 19 18 16 15
16 16 17 17 17 15 15 15 14 13 12 10 9 9 3 3 9 10 12 9 10 6 13 17 12 7 7 8 5 5 10 6 6 9 9 6 13 11 17 23 21 20 16 14 13
17 17 16 17 17 17 16 16 15 14 12 10 9 8 3 5 7 12 10 8 10 14 14 12 17 13 10 7 4 11 4 8 5 8 11 15 7 11 19 21 21 18 13 12 11
18 18 17 17 19 18 17 16 16 15 14 11 8 5 5 13 11 10 11 6 8 11 14 15 9 7 8 7 2 9 7 7 8 5 4 7 8 7 13 19 19 16 13 13 11
19 18 18 18 18 20 20 19 17 15 12 10 5 4 8 7 9 11 10 10 11 14 16 14 11 6 2 7 6 5 5 5 6 11 4 10 8 4 10 19 17 16 13 12 10
19 18 20 19 18 18 19 21 18 13 7 7 3 3 10 2 7 12 12 10 14 16 16 13 7 4 4 3 4 2 4 5 8 7 4 6 5 8 8 18 18 17 13 10 8
18 20 20 20 20 18 24 14 5 12 4 8 8 5 7 9 6 10 11 12 11 11 9 10 8 5 1 4 5 6 5 4 5 3 8 8 14 5 10 9 18 17 15 11 9
21 21 21 20 19 17 13 2 2 1 5 12 10 8 11 12 8 9 9 9 10 8 8 10 5 6 12 12 13 12 9 12 5 4 4 7 3 24 13 16 2 10 16 15 11
22 22 22 20 19 17 4 4 10 7 9 19 20 17 21 12 7 10 9 8 7 8 11 8 8 10 13 10 12 20 6 3 6 5 6 5 9 6 10 14 19 11 14 17 14
23 23 24 23 24 4 6 11 10 16 5 16 14 10 17 12 8 10 11 9 9 10 12 10 14 7 6 11 13 12 6 5 7 12 6 6 4 1 1 6 16 12 19 19 19
23 23 23 28 3 5 6 10 16 12 5 9 9 12 12 9 8 14 15 10 7 12 15 11 14 9 12 9 10 2 1 8 9 11 6 2 4 4 2 8 8 10 18 15 19
24 24 23 12 9 5 7 13 6 3 5 6 11 7 10 13 5 12 12 9 12 12 7 14 12 13 10 13 4 7 6 3 8 6 6 4 6 8 10 11 22 17 18 7 17
22 23 23 2 5 13 15 15 3 1 8 4 10 12 15 13 14 17 9 8 8 11 15 17 16 12 12 6 2 6 6 9 7 5 1 6 4 7 4 8 5 7 3 8 18
25 19 12 8 7 8 11 5 1 5 8 9 9 10 11 11 14 14 14 13 8 3 7 13 18 16 16 8 5 6 5 5 5 5 4 12 9 5 9 6 8 9 12 16 15
28 27 9 9 9 9 5 1 6 10 13 7 12 13 11 9 13 11 14 11 9 9 8 7 13 14 16 11 11 8 6 6 4 3 6 12 2 3 11 7 10 14 11 13 16
31 3 4 8 14 4 1 5 7 6 8 16 4 11 7 10 12 14 13 9 13 14 12 5 16 20 18 17 11 9 7 12 5 5 2 5 1 7 7 6 7 16 15 23 35
5 4 7 6 13 4 2 7 10 9 18 20 8 5 9 13 11 10 12 15 15 11 15 10 9 15 17 4 4 9 7 3 5 2 4 3 2 4 0 4 24 24 21 27 27
3 4 3 15 8 2 6 7 10 16 18 13 10 11 14 8 8 13 15 15 17 14 10 11 8 12 7 7 6 6 5 5 4 5 5 6 7 9 14 19 27 20 15 19 16
5 4 11 12 3 4 7 6 10 23 23 22 4 8 13 11 10 7 8 11 10 12 8 10 5 3 12 15 9 9 10 8 6 9 6 3 7 18 19 18 8 17 5 19 20
4 5 4 6 4 8 9 17 20 21 21 20 8 7 10 9 7 7 11 12 3 6 5 3 4 3 11 11 9 7 9 6 4 2 7 6 5 13 4 13 14 35 25 18 17
4 4 2 3 7 10 10 12 14 19 20 20 15 5 8 8 8 7 10 8 4 5 4 9 2 6 7 8 3 4 8 9 4 3 5 3 9 8 9 16 29 26 21 24 19
4 3 4 2 6 12 12 11 17 17 14 15 6 4 8 7 9 9 12 15 6 6 4 4 6 5 9 11 15 9 11 8 2 8 3 11 11 12 18 22 22 26 15 19 21
4 5 7 8 11 13 13 12 16 19 11 10 6 10 6 7 7 10 8 6 5 7 7 8 5 5 7 10 14 15 11 8 5 6 12 8 4 11 8 18 14 13 12 16 13
5 5 3 8 9 9 7 10 12 13 12 13 11 4 8 5 7 8 10 10 9 5 4 2 5 7 8 9 11 9 8 6 4 2 2 3 7 11 5 9 8 9 14 15 15
Wind_Direction
3 359 352 347 341 339 339 337 331 326 327 323 323 325 326 325 304 232 252 230 182 166 166 199 220 232 302 63 153 138 118 271 265 163 139 118 87 91 112 131 144 141 137 139 142
3 358 352 348 342 337 335 331 328 323 323 323 324 325 326 331 286 247 244 162 121 150 188 199 4 73 349 146 289 56 169 205 252 224 130 112 119 140 126 105 119 124 126 139 141
359 356 351 345 340 337 331 326 322 320 316 314 318 321 322 316 276 223 170 152 150 177 227 47 16 65 203 183 181 211 232 216 247 260 117 131 150 130 139 120 127 134 143 146 153
356 352 347 343 340 335 330 324 320 318 315 311 310 313 319 261 25 102 128 145 151 180 321 27 12 330 257 207 205 233 248 220 236 174 137 154 147 150 140 138 133 136 147 149 163
357 351 345 342 337 335 329 322 318 317 316 314 311 316 280 225 252 132 133 139 150 187 179 200 195 228 261 288 305 259 161 150 146 144 123 158 129 121 124 129 130 139 153 159 172
353 350 344 339 336 332 327 320 316 313 312 312 308 316 227 254 115 143 155 156 197 189 209 175 200 215 246 281 321 351 148 137 199 62 152 106 165 106 126 130 137 146 159 171 180
352 347 342 341 335 330 324 318 312 308 308 304 297 287 263 250 141 156 170 190 217 208 241 251 276 315 334 313 298 42 356 1 124 143 172 114 36 103 138 136 141 149 169 186 186
349 344 340 338 336 328 322 314 306 299 297 291 273 273 253 290 157 164 193 199 218 244 254 276 289 313 330 296 329 77 54 33 296 14 145 110 216 148 171 142 151 158 178 187 183
346 341 339 335 333 327 317 309 296 289 265 276 227 222 268 239 198 184 192 219 215 232 245 258 265 266 355 26 341 256 180 192 275 272 305 313 208 208 187 154 162 165 176 181 178
341 340 337 333 329 329 318 284 291 315 224 217 257 319 258 226 202 222 196 219 253 255 259 239 238 244 51 93 238 226 186 119 217 308 128 325 283 188 187 168 170 166 170 174 178
341 338 335 329 326 335 342 342 324 278 255 205 198 231 293 225 207 202 189 219 252 285 278 277 279 195 218 208 243 258 207 186 205 359 96 201 265 1 329 29 319 176 171 172 178
340 336 333 327 320 321 287 248 258 326 274 221 248 243 262 280 173 202 191 204 235 251 266 277 252 256 210 248 273 294 80 182 168 185 162 239 104 77 41 115 265 296 307 181 170
337 335 332 325 316 282 226 238 292 312 297 278 234 223 243 243 204 213 180 206 239 256 256 254 262 181 239 271 276 293 144 209 179 190 346 128 105 300 185 158 254 282 298 207 177
334 333 333 329 307 330 235 237 238 249 297 261 195 226 241 237 228 240 191 185 222 246 271 270 286 219 223 258 277 39 277 285 217 172 187 119 231 312 226 222 254 246 296 213 178
331 330 328 321 309 267 304 323 219 200 289 161 166 192 191 214 212 232 250 204 219 255 252 261 269 288 241 258 219 246 286 303 311 307 106 349 96 256 166 225 233 241 227 288 187
321 324 330 88 196 248 296 301 321 280 247 172 153 203 179 213 233 250 224 219 197 233 269 276 286 292 280 279 311 306 294 306 278 242 309 182 118 272 240 213 241 234 178 315 187
315 310 304 303 232 339 318 265 246 228 296 157 162 168 180 197 220 229 251 214 202 214 269 277 271 273 273 272 271 253 293 310 344 17 268 140 209 276 223 289 285 275 25 333 195
316 305 236 216 243 296 301 333 243 253 249 290 165 173 180 209 204 218 254 213 216 211 259 258 282 248 249 210 204 221 218 161 258 157 186 289 270 294 356 21 338 342 358 6 313
315 176 232 232 215 246 281 213 219 223 264 341 307 164 180 198 214 199 216 227 217 204 210 245 278 289 301 225 196 238 243 231 239 202 154 176 314 143 346 334 321 308 161 163 239
310 275 236 194 156 184 193 246 244 264 304 320 324 300 191 199 190 196 206 220 230 222 195 229 250 272 285 307 303 175 222 10 334 250 290 30 284 214 166 114 336 296 199 198 228
242 263 163 132 147 159 220 239 264 271 268 284 322 316 325 315 234 208 213 224 213 224 210 204 199 271 328 297 220 316 311 273 175 179 207 169 248 206 181 150 198 258 249 174 154
303 272 147 145 145 207 235 249 272 283 293 293 246 291 290 307 322 333 257 221 214 192 195 225 197 248 233 260 256 200 230 221 142 276 234 147 256 177 199 173 222 340 282 90 90
293 274 167 171 219 236 246 238 249 268 274 281 270 243 273 291 318 329 328 307 345 149 130 62 320 287 320 324 308 207 240 245 257 331 272 138 248 191 57 44 349 330 89 89 105
276 274 190 198 251 252 268 277 264 241 257 276 285 274 330 318 314 311 309 310 150 103 137 94 191 195 220 225 303 336 293 297 73 330 314 182 123 127 106 75 29 320 105 115 119
228 281 20 265 248 238 257 277 289 296 262 243 258 300 291 313 324 315 310 320 300 169 156 130 213 256 279 297 297 268 247 236 61 256 305 203 144 168 142 124 121 243 130 119 120
332 360 328 291 294 310 208 243 260 282 293 312 195 212 261 276 261 274 335 343 181 327 337 360 272 240 278 293 295 297 303 210 232 321 22 110 100 185 177 142 172 211 95 94 89
351 339 265 292 305 314 302 285 278 251 282 287 299 347 225 49 5 325 305 291 280 179 150 331 80 19 272 267 287 313 287 141 135 116 212 211 234 153 153 161 207 146 117 109 108